Location: Banios
(43.0451°N, 0.2335°E)
Time: 07:57:29
(UTC+00:00)

A-11 Canister half - Pass Details

Date: 15 May 2021
Orbit: 1527 x 1681 km, 47.3° (Epoch: 22 June)

Event Time Altitude Azimuth Distance (km) Brightness Sun altitude
Rises 10:26:01 0° 263° (W) 4,739 11.4 59.4°
Reaches altitude 10° 10:29:04 10° 266° (W) 3,774 11.0 59.8°
Maximum altitude 10:38:42 72° 351° (N) 1,684 10.1 61.0°
Drops below altitude 10° 10:48:41 10° 76° (ENE) 3,899 11.4 62.1°
Sets 10:51:54 0° 78° (ENE) 4,903 11.8 62.5°
